www.pogodaiklimat.ru

Погода и климат >> Архив погоды >> Россия >> Сахалинская область >> Южно-Курильск


АРХИВ ПОГОДЫ в Южно-Курильске

Время (UTC), дата Ветер
(напр.,м/с)
 
Видим.   Явления Облачность Т
(С)
Тd
(С)
f
(%)
Тe
(С)
Тes
(С)
Комфортность P
(гПа)
Po
(гПа)
Тmin
(С)
Tmax
(С)
R
(мм)
R24
(мм)
S
(см)
06 15.04 Ю 14-19
{23}
4000 м слаб. дождь 10/10 200 м
[Frnb Ns]
+4.1 +3.6 97 -4 -4 прохладно 1002.1 996.4
09 15.04 ЮВ 4-6
{20}
500 м слаб. дождь {туман} туман ?/? +3.2 +3.1 99 -2 -2 по сезону 999.7 994.1 +4.5 19
12 15.04 Ю 3-5
{6}
200 м туман {дождь} ?/? +3.4 +3.4 100 -1 -1 по сезону 998.5 992.9
15 15.04 ЮЗ 3-6
{7}
200 м туман ?/? +2.7 +2.7 100 -2 -2 по сезону 997.3 991.6
18 15.04 СЗ 4-7
{8}
20 км {туман} 10/10 600 м
[Cb cap]
+2.5 +1.3 92 -2 -2 по сезону 997.8 992.1
21 15.04 СЗ 8-12
{17}
4000 м слаб. ливневой дождь 10/10 300 м
[Cb cap]
+1.5 +0.4 92 -6 -6 прохладно 998.3 992.6 +1.4 3
00 16.04 СЗ 14-24
{24}
2000 м слаб. ливневой дождь со снегом 10/10 300 м
[Cb cap]
+1.7 +1.1 96 -7 -7 холодно 999.5 993.8 +0.9
03 16.04 СЗ 14-25
{24}
4000 м слаб. ливневой дождь 10/10 300 м
[Cb cap]
+3.3 +1.3 87 -5 -5 прохладно 1001.6 995.9
06 16.04 СЗ 12-20
{27}
20 км {ливн. осадки} 5/5 600 м
[Cb cap]
+4.7 +1.4 79 -2 -2 по сезону 1004.1 998.5
09 16.04 СЗ 9-15
{24}
20 км 1/1 600 м
[Cu hum]
+3.6 -0.1 77 -3 -3 по сезону 1006.3 1000.6 +5.4 3
12 16.04 З 2-8
{17}
50 км ясно +5.2 -1.1 64 +3 +3 тепло 1009.3 1003.6
15 16.04 ЮЗ 1-3
{11}
50 км ясно +5.4 -1.4 62 +5 +5 тепло 1009.3 1003.6
18 16.04 ЮЗ 3-4
{4}
50 км ясно +2.0 -0.8 82 -2 -2 по сезону 1008.5 1002.8
21 16.04 СВ 2-4
{4}
50 км ясно +3.5 -0.4 76 +1 +2 по сезону 1008.2 1002.5 +1.4
00 17.04 ЮВ 1-3
{4}
50 км 3/0
[Ci fib]
+6.1 +1.0 70 +5 +18 опасность
простуды
1008.5 1002.8
03 17.04 В 0
{3}
50 км ясно +8.8 +3.2 68 +8 +29 опасность
простуды
1008.5 1002.6
06 17.04 С 1-2
{4}
50 км ясно +12.7 +5.6 62 +13 +20 тепло 1008.2 1002.7
09 17.04 ЮВ 2-2
{5}
50 км 4/0
[Ci fib]
+9.6 +2.5 61 +8 +8 тепло 1009.8 1004.2 +14.9
12 17.04 ЮЗ 2-4
{4}
50 км 3/0
[Ci fib]
+8.4 +2.8 68 +7 +7 тепло 1012.0 1006.4
15 17.04 С 2-3
{4}
50 км 3/0
[Ci fib]
+5.0 +0.8 74 +3 +3 тепло 1013.2 1007.5
18 17.04 ЮЗ 2-3
{4}
50 км ясно +5.5 +0.6 71 +3 +3 тепло 1013.1 1007.4
21 17.04 Ю 1-3
{3}
50 км 10/0
[Ci fib]
+7.3 +1.6 67 +7 +8 тепло 1013.6 1007.9 +4.7
00 18.04 Ю 1-2
{3}
50 км 10/0
[Cs]
+11.9 -0.3 43 +12 +23 опасность
простуды
1014.1 1008.6
03 18.04 СВ 5-8
{9}
50 км 10/0
[Cs]
+3.7 +1.2 84 -1 +5 по сезону 1014.4 1008.7
06 18.04 В 5-7
{8}
4000 м дымка 10/0
[Cs]
+1.3 +0.3 93 -5 -2 прохладно 1013.7 1007.9
09 18.04 В 6-10
{10}
200 м туман ?/? +0.4 +0.4 100 -6 -6 прохладно 1013.9 1008.1 +13.9
12 18.04 В 7-10
{11}
200 м туман ?/? +0.2 +0.2 100 -7 -7 прохладно 1014.5 1008.7
15 18.04 В 4-6
{10}
200 м туман ?/? +0.3 +0.3 100 -5 -5 по сезону 1014.4 1008.6
18 18.04 ЮВ 3-5
{7}
200 м туман ?/? +0.4 +0.4 100 -4 -4 по сезону 1013.5 1007.7
21 18.04 В 5-8
{7}
200 м туман ?/? +0.7 +0.7 100 -6 -6 прохладно 1013.0 1007.2 +0.1
00 19.04 В 5-8
{9}
200 м туман ?/? +1.1 +1.1 100 -5 -5 прохладно 1012.1 1006.3
03 19.04 В 4-6
{9}
500 м слаб. ливневой дождь {туман} туман ?/? +1.6 +1.6 100 -4 -4 прохладно 1010.6 1004.8
06 19.04 В 6-9
{10}
200 м слаб. ливневой дождь {туман} туман ?/? +1.0 +1.0 100 -6 -6 холодно 1009.1 1003.3
09 19.04 СВ 5-9
{11}
200 м слаб. ливневой дождь {туман} туман ?/? +1.1 +1.1 100 -5 -5 прохладно 1008.7 1003.0 +1.8 4
12 19.04 СЗ 5-7
{10}
20 км {ливн. осадки, туман} 9/9 600 м
[Cb cap]
+2.8 +2.7 99 -3 -3 по сезону 1010.1 1004.4
15 19.04 СЗ 3-8
{11}
20 км 8/8 600 м
[Cb cap]
+3.2 -4.8 56 -0 -0 по сезону 1009.7 1004.0
18 19.04 С 3-7
{10}
20 км 9/9 600 м
[Cb cap]
+3.2 -4.8 56 -0 -0 по сезону 1009.7 1004.6
21 19.04 С 3-6
{9}
50 км 9/0
[Ac trans]
+3.7 -6.3 48 +1 +1 по сезону 1010.8 1005.0 +1.1 1
00 20.04 СЗ 5-8
{9}
50 км 1/0
[Ci fib]
+6.4 -6.4 39 +3 +9 по сезону 1010.8 1005.1
03 20.04 С 5-8
{9}
50 км 1/0
[Ci sp]
+7.2 -6.4 37 +4 +12 тепло 1010.2 1004.6
06 20.04 СЗ 5-8
{9}
50 км 1/0
[Ci fib]
+6.4 -6.4 39 +3 +6 по сезону 1010.8 1005.1
09 20.04 СЗ 4-6
{10}
50 км ясно +2.9 -7.5 46 -1 -1 по сезону 1011.4 1005.6 +7.8
12 20.04 СЗ 3-5
{6}
50 км ясно +0.6 -5.3 65 -4 -4 по сезону 1012.3 1006.5
15 20.04 СЗ 3-4
{6}
50 км ясно -0.3 -2.9 83 -5 -5 по сезону 1012.5 1006.7
18 20.04 СЗ 2-4
{5}
50 км ясно +0.2 -3.2 78 -3 -3 по сезону 1012.8 1007.0
21 20.04 С 2-4
{7}
50 км ясно +2.4 -1.7 74 -1 +1 по сезону 1013.5 1007.7 -0.4
00 21.04 СЗ 4-9
{9}
50 км ясно +6.3 -3.1 51 +3 +11 опасность
простуды
1013.9 1008.2
03 21.04 ЮВ 4-5
{9}
50 км ясно +5.8 -1.6 59 +2 +13 опасность
простуды
1013.7 1008.0
06 21.04 Ю 3-4
{6}
50 км 10/0
[Ci fib]
+5.1 +0.3 71 +2 +6 по сезону 1013.6 1007.9
09 21.04 Ю 2-3
{5}
50 км 10/1 600 м
[Cu hum Ac lent Ci fib]
+2.8 +0.3 84 -0 -0 по сезону 1014.6 1008.9 +8.1
12 21.04 В 1-3
{4}
20 км 10/3 600 м
[Cu hum Ac lent Ci fib]
+1.8 +0.3 90 0 0 по сезону 1015.7 1009.9
15 21.04 ЮВ 1-2
{3}
20 км 10/0
[Cs]
+1.6 +1.0 96 -0 -0 по сезону 1015.4 1009.6
18 21.04 В 1-3
{4}
20 км 10/0
[Ac As]
+1.7 +0.5 92 -0 -0 по сезону 1014.5 1008.7
21 21.04 В 2-3
{4}
50 км 10/0
[Ac As]
+2.0 +1.1 94 -1 -1 по сезону 1014.8 1009.0 +1.5
00 22.04 В 1-2
{4}
20 км 10/0
[Ac As Ci fib]
+3.6 +1.8 88 +2 +8 по сезону 1014.8 1009.1
03 22.04 В 2-3
{4}
20 км 10/9 600 м
[Sc Ci fib]
+4.9 +2.8 86 +2 +4 по сезону 1014.4 1008.7

 

Местоположение метеостанции Южно-Курильск (Сахалинская область, Россия): широта 44.02 долгота 145.80 высота над уровнем моря 49 м.

В архиве по умолчанию представлена погода в Южно-Курильске за последнюю неделю. Архивные данные за месяц целиком и за предыдущие месяцы, начиная с января 2011 года, Вы можете получить, выбрав интересующий диапазон дат из раскрывающегося списка и нажав кнопку "Ввод!".


*Определитесь, кто Вы:
робот инопланетянин человек

Внимание! Время в таблицах - всемирное. Для получения местного времени необходимо прибавить поправку, которая равна 11 ч.

Смотрите также архив погоды в соседних городах и на ближайших метеорологических станциях:

Погода в Немуро (Япония) (79 км)
Погода в Малокурильском (Сахалинская область, Россия) (82 км)
Погода в Абасири (Япония) (122 км)
Погода в Кусиро (Япония) (163 км)
Погода в Момбецу (Япония) (199 км)
Погода в Курильске (Сахалинская область, Россия) (209 км)
Погода в Омурайсу (Япония) (234 км)
Погода в Обихиро (Япония) (242 км)
Погода в Китами Сачи (Япония) (275 км)
Погода в Асахикаве (Япония) (277 км)

Пояснения к столбцам:

Ветер - указаны скорость ветра в м/с - средняя за 10 мин, порывы в срок и между сроками (в фигурных скобках) и направление, откуда дует ветер: С - северный, СВ - северо-восточный, В - восточный, ЮВ - юго-восточный, Ю - южный, ЮЗ - юго-западный, З - западный, СЗ - северо-западный.
Видимость - горизонтальная дальность видимости в метрах или километрах. При видимости от 1 до 10 км при отсутствии осадков обычно наблюдается дымка, при ухудшении видимости до 1 км и менее - туман. В сухую погоду видимость может ухудшаться дымом, пылью или мглою.
Явления - указаны атмосферные явления, наблюдавшиеся в срок или в последний час перед сроком; фигурными скобками обозначены явления, наблюдавшиеся между сроками (за 1-3 часа до срока); квадратными скобками обозначены град или гололедные отложения с указанием их диаметра в мм.
Облачность - указаны через наклонную черту общая и нижняя облачность в баллах и высота нижней границы облаков в метрах; квадратными скобками обозначены формы облаков: Ci - перистые, Cs - перисто-слоистые, Cc - перисто-кучевые, Ac - высококучевые, As - высокослоистые, Sc - слоисто-кучевые, Ns - слоисто-дождевые, Cu - кучевые, Cb - кучево-дождевые. Подробнее классификацию облаков см. в Атласе облаков (PDF).
T - Температура воздуха - температура, измеренная на высоте 2 м над землей.
Td - Температура точки росы - температура, при понижении до которой содержащийся в воздухе водяной пар достигнет насыщения.
f - Относительная влажность воздуха - влажноcть воздуха, измеренная на высоте 2 м над землей.
Te - Эффективная температура - температура, которую ощущает одетый по сезону человек в тени. Характеристика душности погоды. При расчете учитывается влияние влажности воздуха и скорости ветра на теплоощущения человека.
Tes - Эффективная температура на солнце - температура, которую ощущает человек, с поправкой на солнечный нагрев. Характеристика знойности погоды. Зависит от высоты солнца над горизонтом, облачности и скорости ветра. Ночью, в пасмурную погоду, а также при ветре 12 м/с и более поправка равна нулю.
P - Атмосферное давление - приведенное к уровню моря атмосферное давление.
Po - Атмосферное давление - измеренное на уровне метеостанции атмосферное давление.
Tmin - Минимальная температура - минимум температуры воздуха на высоте 2 м над землей.
Tmax - Максимальная температура - максимум температуры воздуха на высоте 2 м над землей.
R - Количество осадков - Количество выпавших осадков за период времени, мм. При наведении курсора мыши на число - период времени, за который выпало указанное количество осадков.
R24 - Количество осадков - Количество выпавших осадков за 24 часа, мм.
S - Снежный покров - Высота снежного покрова, см. При наведении курсора мыши на число - состояние снежного покрова и степень покрытия местности в баллах.